Miscellaneous Local Product
Issued by NWS Hastings, NE

Home | Current Version | Previous Version | Graphics & Text | Print | Product List | Glossary On
Versions: 1 2 3 4 5 6 7 8 9 10 11 12 13 14 15 16 17 18 19 20 21 22 23 24 25 26 27 28 29 30 31 32 33 34 35 36 37 38 39 40 41 42 43 44 45 46 47 48 49 50
000
AXUS43 KGID 092102
MISGRI

GID CWA HOURLY WEATHER ROUNDUP
NATIONAL WEATHER SERVICE HASTINGS NE
300 PM CST TUE FEB 09 2016

NOTE: "FAIR" INDICATES FEW OR NO CLOUDS BELOW 12,000 FEET WITH NO
SIGNIFICANT WEATHER AND/OR OBSTRUCTIONS TO VISIBILITY.

...SOUTH CENTRAL NEBRASKA...

CITY           SKY/WX    TMP DP  RH WIND       PRES   REMARKS
GRAND ISLAND   CLOUDY    27  10  49 NW9       30.27F WCI  18
HASTINGS       CLOUDY    28  11  48 N10       30.26F WCI  19
ORD            CLOUDY    28  11  48 CALM      30.23F
YORK           CLOUDY    28  14  54 N13       30.26F WCI  18
AURORA         CLOUDY    28  11  49 N10       30.26F WCI  18
LEXINGTON      CLOUDY    32  17  53 W5        30.25F WCI  27
HOLDREGE       CLOUDY    29  17  60 CALM      30.27F
HEBRON         SUNNY     28  11  50 N13G21    30.29S WCI  17

...NEBRASKA PANHANDLE...

CITY           SKY/WX    TMP DP  RH WIND       PRES   REMARKS
CHADRON        CLOUDY    50  33  52 NW10      30.17F
ALLIANCE       CLOUDY    39  32  76 W13       30.19F WCI  31
SCOTTSBLUFF    PTSUNNY   50  32  50 NW14      30.21F
SIDNEY         SUNNY     44  30  57 NW17      30.22F

...WESTERN AND NORTH CENTRAL NEBRASKA...

CITY           SKY/WX    TMP DP  RH WIND       PRES   REMARKS
VALENTINE      CLOUDY    33  20  58 SW10      30.18F WCI  25
AINSWORTH      CLOUDY    32  13  46 SW8G16    30.18F WCI  25
ONEILL         SUNNY     30  11  44 W7        30.21F WCI  23
BROKEN BOW     CLOUDY    28  14  55 W7        30.22F WCI  21
IMPERIAL       CLOUDY    41  29  62 W5        30.21F
NORTH PLATTE   CLOUDY    34  20  56 SW9       30.21F WCI  27
MCCOOK         CLOUDY    39  20  46 N3        30.25F

...EASTERN NEBRASKA...

CITY           SKY/WX    TMP DP  RH WIND       PRES   REMARKS
NORFOLK        SUNNY     28  12  51 NW13      30.22S WCI  17
SO SIOUX CITY  CLOUDY    23  11  60 NW20      30.23F WCI   8
TEKAMAH        PTSUNNY   44  10  25 NW17      30.26R
COLUMBUS       CLOUDY    27   9  46 NW14      30.25S WCI  15
ALBION         CLOUDY    28  12  51 W9        30.24F WCI  19
OMAHA EPPLEY   MOSUNNY   23   8  52 NW18      30.24S WCI   9
OFFUTT AFB     SUNNY     24   8  49 NW13      30.23S WCI  13
MILLARD        SUNNY     23   7  51 NW10      30.24F WCI  12
LINCOLN        CLOUDY    27  10  49 N10       30.27F WCI  17
NEBRASKA CITY  MOSUNNY   24   7  47 N17       30.23S WCI  11
BEATRICE       SUNNY     27  10  47 N14G22    30.27S WCI  16
FALLS CITY     SUNNY     26   4  38 NW16G28   30.24S WCI  14

...NORTHERN KANSAS...

CITY           SKY/WX    TMP DP  RH WIND       PRES   REMARKS
GOODLAND       CLOUDY    46  29  51 NW10      30.23F
HILL CITY      CLOUDY    38  21  50 N5        30.28F WCI  34
NORTON         CLOUDY    34  19  55 NE3       30.26S
PHILLIPSBURG   CLOUDY    34  19  55 CALM      30.29S
SMITH CENTER   CLOUDY    28  16  59 CALM      30.30F
BELOIT         CLOUDY    30  12  47 N15       30.30S WCI  19
HAYS           CLOUDY    37  16  41 N14       30.28S WCI  29
RUSSELL        CLOUDY    34  20  56 N15       30.28S WCI  24
CONCORDIA      CLOUDY    31  11  43 N17G25    30.29F WCI  19
SALINA         MOSUNNY   37  11  34 N24       30.30R WCI  26
TOPEKA         SUNNY     31   2  29 NW18G32   30.25R WCI  19



USA.gov is the U.S. government's official web portal to all federal, state and local government web resources and services.